This is the latest recevied weather packets stored in our database for station/object KB4MOX. If no packets are shown the sender has not sent any weather packets the latest 10 day(s).
| Time | Temp. | Humidity | Pressure | Rain* | Wind** | Luminosity | Snow |
|---|---|---|---|---|---|---|---|
| 1778146277 | 18.89° C | 97% | 1012.2 hPa | 0 mm | - | 0 W/m² | - |
| 1778145973 | 18.89° C | 97% | 1012.4 hPa | 0 mm | - | 0 W/m² | - |
| 1778145669 | 18.89° C | 97% | 1012.1 hPa | 0 mm | - | 0 W/m² | - |
| 1778145366 | 18.89° C | 97% | 1012 hPa | 0 mm | - | 0 W/m² | - |
| 1778145062 | 18.89° C | 97% | 1012.1 hPa | 0 mm | - | 0 W/m² | - |
| 1778144758 | 18.89° C | 97% | 1012.2 hPa | 0 mm | - | 0 W/m² | - |
| 1778144455 | 18.89° C | 97% | 1011.9 hPa | 0 mm | - | 0 W/m² | - |
| 1778144152 | 18.89° C | 97% | 1011.8 hPa | 0 mm | - | 0 W/m² | - |
| 1778143849 | 18.89° C | 97% | 1012 hPa | 0 mm | - | 0 W/m² | - |
| 1778143546 | 18.89° C | 97% | 1012.1 hPa | 0 mm | - | 0 W/m² | - |
| 1778143243 | 18.89° C | 97% | 1011.6 hPa | 0 mm | - | 0 W/m² | - |
| 1778142939 | 18.89° C | 97% | 1011.5 hPa | 0 mm | - | 0 W/m² | - |
| 1778142636 | 18.89° C | 97% | 1011.4 hPa | 0 mm | - | 0 W/m² | - |
| 1778142332 | 18.89° C | 97% | 1011.8 hPa | 0 mm | - | 0 W/m² | - |
| 1778142029 | 18.89° C | 97% | 1011.8 hPa | 0 mm | - | 0 W/m² | - |
| 1778141725 | 18.89° C | 97% | 1011.5 hPa | 1.78 mm | - | 0 W/m² | - |
| 1778141422 | 18.89° C | 97% | 1010.8 hPa | 3.56 mm | - | 0 W/m² | - |
| 1778141118 | 19.44° C | 97% | 1010.7 hPa | 4.83 mm | - | 0 W/m² | - |
| 1778140814 | 19.44° C | 97% | 1011.4 hPa | 8.89 mm | - | 0 W/m² | - |
| 1778140510 | 19.44° C | 97% | 1011.9 hPa | 8.89 mm | - | 0 W/m² | - |
| 1778140206 | 19.44° C | 97% | 1013.2 hPa | 6.1 mm | - | 0 W/m² | - |
| 1778139903 | 19.44° C | 97% | 1012.9 hPa | 7.87 mm | - | 0 W/m² | - |
| 1778139601 | 19.44° C | 97% | 1012.6 hPa | 10.67 mm | - | 0 W/m² | - |
| 1778139297 | 19.44° C | 97% | 1012.6 hPa | 10.16 mm | - | 0 W/m² | - |
| 1778138994 | 19.44° C | 97% | 1012.2 hPa | 8.89 mm | - | 0 W/m² | - |
* Rain latest hour (hover to see other rain measurements)
** Current wind speed in m/s (hover to see current wind gust speed)